Volver al catálogo

STARLINK-34333

ActivoComunicacionesVLEO
NORAD 64264·PAYLOAD·🇺🇸 United States

Lanzado Jun 4, 2025 desde Vandenberg Space Force Base

Loading…

Próximos Pases (próximas 24 horas)

TLE

ActualizadoSource: CelesTrak SupGP

Época: Sep 14, 2026, 21:18 UTC

1 64264C 25120J   26257.88798611  .00000225  00000+0  66616-5 0  2577
2 64264  53.1591 312.0578 0001150  91.0185 331.9329 15.34373006    18

Sigue STARLINK-34333 en tiempo real con AllMySat

Download on the App Store